Tracking 20721 objects as of 1-Jun-2020
HD Live streaming from Space Station
objects crossing your sky now

BREEZE-KM R/B

Track BREEZE-KM R/B now!
10-day predictions


NORAD ID: 41580
Int'l Code: 2016-034B
Perigee: 662.5 km
Apogee: 968.7 km
Inclination: 99.1 °
Period: 101.1 minutes
Semi major axis: 7186 km
RCS: Unknown
Launch date: June 4, 2016
Source: Commonwealth of Independent States (former USSR) (CIS)
Launch site: PLESETSK MISSILE AND SPACE COMPLEX (PKMTR)

Note: This is a ROCKET BODY
aabbcc
Your satellite tracking list
Your tracking list is empty




NASA's NSSDC Master Catalog

Two Line Element Set (TLE):
1 41580U 16034B   20151.70361412 -.00000047 +00000-0 +15375-5 0  9993
2 41580 099.0878 244.4200 0213027 043.6993 318.0832 14.25015800207376
Source of the keplerian elements: AFSPC